THOR ABLESTAR DEB, 144

Orbit data source: Space-Track

THOR ABLESTAR DEB, 144 is space debris in LEO originally from a launch on Thu, 29 Jun 1961 UTC launched from the Air Force Eastern Test Range (AFETR). Debris objects in space refer to the collection of defunct objects orbiting the Earth. Examples of debris include non-operational satellites, rocket bodies, and fragments generated from explosions, collisions, or faulty payload assembly.

Loading next visibility...
Identifier
144, 1961-015AE
Orbit
LEO
Country
Flag of USUS
Related business
Manufacturer
Unknown
Mission
Spacecraft
Bus & Motor
Unknown
Mass
Unknown
Launch date (UTC)
1961-06-29 (65 years ago)
Launch vehicle
Unknown
Launch site
Air Force Eastern Test Range (AFETR)
Object type
Payload
Rocket body
Debris
Shape & HBR
Unknown shape, 0.2 m
Radar Cross Section
Small (<0.1 m²)

Expand to show TLE details & history
Last TLE update: 7 hours ago

TLE from 7 hours ago
0 THOR ABLESTAR DEB
1   144U 61015AE  26129.71180851  .00000180  00000-0  20247-3 0  9990
2   144  66.4970 123.2820 0039679  12.5452 347.6602 13.91659776279295
Epoch: 2026-05-09T17:05Z
TLE epoch observation values (Epoch: 2026-05-09T17:05:00.255Z)
Latitude
-0.00007°
Longitude
-0.49441°
Altitude
896.576 km
Speed
7.419 km/s
True Right ascension
08h 13m 07s
True Declination
0° 00' 00"
Sunlit
Object was in daylight at epoch
Visualization orbit readout
Latitude
Unknown
Longitude
Unknown
Altitude
Unknown
Speed
Unknown
Apparent Right ascension
Unknown
Apparent Declination
Unknown
Sunlit
N/A
Visualization observer readout
Local Sidereal Time
07:57:15
Azimuth
Unknown
Elevation
Unknown
Doppler factor
Unknown
Orbital elements
Apogee altitude
950.211 km
Perigee altitude
892.284 km
Semi-major axis
7,299.385 km
Eccentricity
0.00397
Inclination
66.497°
RAAN
123.282°
Arg. of periapsis
12.5452°
True anomaly
347.56256°
Mean anomaly
347.6602°
Eccentric anomaly
347.61143°
Mean motion
3.48028 °/min
Orbital period
103.44 mins
BSTAR
0.00020247
Loading maneuver chart data...
Computing Atmospheric mass density...

Documentation

Showing up to 5 results
|